Tracking 31013 objects as of 10-Jul-2025
HD Live streaming from Space Station
objects crossing your sky now

CZ-3B R/B

Track CZ-3B R/B now!
10-day predictions


NORAD ID: 56565
Int'l Code: 2023-066B
Perigee: 166.1 km
Apogee: 17,298.1 km
Inclination: 28.1 °
Period: 307.9 minutes
Semi major axis: 15103 km
RCS: Unknown
Launch date: May 17, 2023
Source: People's Republic of China (PRC)
Launch site: Xichang Space Center, China (XSC)

Note: This is a ROCKET BODY
Your satellite tracking list
Your tracking list is empty




NASA's NSSDC Master Catalog

Two Line Element Set (TLE):
1 56565U 23066B   25190.21837410  .00117340 -26930-6  72991-3 0  9991
2 56565  28.1363 126.5426 5671679 287.7686  20.2760  4.67739043 27574
Source of the keplerian elements: AFSPC